Date,Installs,Update checks
2023-06-26,0,0
2023-06-27,3,1
2023-06-28,1,1
2023-06-29,2,2
2023-06-30,1,5
2023-07-01,1,1
2023-07-02,0,4
2023-07-03,1,4
2023-07-04,0,7
2023-07-05,1,4
2023-07-06,1,5
2023-07-07,2,4
2023-07-08,1,4
2023-07-09,3,3
2023-07-10,4,4
2023-07-11,3,3
2023-07-12,0,2
2023-07-13,1,2
2023-07-14,0,5
2023-07-15,1,7
2023-07-16,0,5
2023-07-17,0,5
2023-07-18,0,6
2023-07-19,1,6
2023-07-20,3,7
2023-07-21,1,8
2023-07-22,2,6
2023-07-23,1,7
2023-07-24,2,8
2023-07-25,1,6
2023-07-26,4,8
2023-07-27,1,8
2023-07-28,1,9
2023-07-29,2,8
2023-07-30,3,10
2023-07-31,0,9
2023-08-01,2,10
2023-08-02,4,12
2023-08-03,0,9
2023-08-04,1,6
2023-08-05,2,10
2023-08-06,1,9
2023-08-07,1,12
2023-08-08,1,8
2023-08-09,0,11
2023-08-10,0,11
2023-08-11,1,8
2023-08-12,1,9
2023-08-13,0,14
2023-08-14,1,13
2023-08-15,0,16
2023-08-16,0,6
2023-08-17,1,13
2023-08-18,1,9
2023-08-19,2,10
2023-08-20,2,9
2023-08-21,1,11
2023-08-22,0,11
2023-08-23,1,12
2023-08-24,2,12
2023-08-25,2,12
2023-08-26,0,9
2023-08-27,1,8
2023-08-28,3,16
2023-08-29,2,13
2023-08-30,4,16
2023-08-31,1,11
2023-09-01,0,11
2023-09-02,3,15
2023-09-03,1,14
2023-09-04,0,9
2023-09-05,3,15
2023-09-06,0,10
2023-09-07,1,9
2023-09-08,2,8
2023-09-09,2,11
2023-09-10,0,10
2023-09-11,1,13
2023-09-12,1,13
2023-09-13,1,11
2023-09-14,4,12
2023-09-15,2,15
2023-09-16,1,14
2023-09-17,4,10
2023-09-18,1,15
2023-09-19,1,13
2023-09-20,6,13
2023-09-21,2,16
2023-09-22,0,15
2023-09-23,4,14
2023-09-24,1,12
2023-09-25,1,18
2023-09-26,0,15
2023-09-27,1,14
2023-09-28,2,16
2023-09-29,0,13
2023-09-30,3,11
2023-10-01,2,15
2023-10-02,3,19
2023-10-03,5,19
2023-10-04,2,17
2023-10-05,1,17
2023-10-06,2,13
2023-10-07,1,11
2023-10-08,0,10
2023-10-09,2,13
2023-10-10,0,16
2023-10-11,4,13
2023-10-12,0,12
2023-10-13,3,12
2023-10-14,0,10
2023-10-15,2,11
2023-10-16,1,15
2023-10-17,4,18
2023-10-18,2,15
2023-10-19,2,12
2023-10-20,2,25
2023-10-21,1,16
2023-10-22,1,16
2023-10-23,1,18
2023-10-24,2,19
2023-10-25,2,21
2023-10-26,1,24
2023-10-27,1,25
2023-10-28,1,16
2023-10-29,2,17
2023-10-30,2,18
2023-10-31,6,24
2023-11-01,3,28
2023-11-02,2,29
2023-11-03,0,22
2023-11-04,1,24
2023-11-05,1,17
2023-11-06,0,19
2023-11-07,3,20
2023-11-08,4,26
2023-11-09,2,22
2023-11-10,2,24
2023-11-11,2,24
2023-11-12,1,23
2023-11-13,4,22
2023-11-14,2,22
2023-11-15,1,26
2023-11-16,3,24
2023-11-17,5,21
2023-11-18,1,22
2023-11-19,1,26
2023-11-20,2,18
2023-11-21,0,21
2023-11-22,4,18
2023-11-23,3,25
2023-11-24,1,21
2023-11-25,1,21
2023-11-26,0,21
2023-11-27,2,18
2023-11-28,5,28
2023-11-29,2,24
2023-11-30,6,22
2023-12-01,2,19
2023-12-02,3,26
2023-12-03,4,21
2023-12-04,2,28
2023-12-05,1,24
2023-12-06,4,21
2023-12-07,1,19
2023-12-08,3,20
2023-12-09,1,22
2023-12-10,1,27
2023-12-11,4,25
2023-12-12,3,17
2023-12-13,2,22
2023-12-14,1,21
2023-12-15,1,19
2023-12-16,1,21
2023-12-17,1,27
2023-12-18,4,19
2023-12-19,1,27
2023-12-20,0,24
2023-12-21,1,30
2023-12-22,0,14
2023-12-23,0,21
2023-12-24,1,18
2023-12-25,2,24
2023-12-26,1,29
2023-12-27,2,20
2023-12-28,2,22
2023-12-29,2,19
2023-12-30,1,28
2023-12-31,1,26
2024-01-01,3,27
2024-01-02,1,31
2024-01-03,1,27
2024-01-04,3,29
2024-01-05,6,28
2024-01-06,5,29
2024-01-07,8,35
2024-01-08,6,22
2024-01-09,0,36
2024-01-10,3,33
2024-01-11,2,29
2024-01-12,0,28
2024-01-13,2,39
2024-01-14,1,28
2024-01-15,5,30
2024-01-16,6,33
2024-01-17,1,34
2024-01-18,1,35
2024-01-19,1,28
2024-01-20,4,38
2024-01-21,3,38
2024-01-22,3,32
2024-01-23,3,32
2024-01-24,4,30
2024-01-25,2,30
2024-01-26,4,29
2024-01-27,1,25
2024-01-28,2,29
2024-01-29,3,30
2024-01-30,3,38
2024-01-31,6,31
2024-02-01,2,29
2024-02-02,1,35
2024-02-03,3,32
2024-02-04,0,27
2024-02-05,1,37
2024-02-06,2,34
2024-02-07,6,37
2024-02-08,1,32
2024-02-09,1,36
2024-02-10,0,29
2024-02-11,2,34
2024-02-12,2,37
2024-02-13,4,35
2024-02-14,0,42
2024-02-15,0,32
2024-02-16,0,32
2024-02-17,3,36
2024-02-18,2,35
2024-02-19,2,37
2024-02-20,3,41
2024-02-21,3,42
2024-02-22,2,48
2024-02-23,5,38
2024-02-24,2,44
2024-02-25,3,43
2024-02-26,2,47
2024-02-27,1,49
2024-02-28,6,44
2024-02-29,3,41
2024-03-01,3,49
2024-03-02,1,48
2024-03-03,7,47
2024-03-04,2,44
2024-03-05,0,49
2024-03-06,1,45
2024-03-07,1,47
2024-03-08,3,43
2024-03-09,1,38
2024-03-10,3,41
2024-03-11,2,50
2024-03-12,1,44
2024-03-13,1,53
2024-03-14,2,50
2024-03-15,2,50
2024-03-16,5,45
2024-03-17,2,52
2024-03-18,3,47
2024-03-19,2,49
2024-03-20,1,54
2024-03-21,1,49
2024-03-22,3,58
2024-03-23,2,54
2024-03-24,2,47
2024-03-25,2,50
2024-03-26,1,54
2024-03-27,5,57
2024-03-28,1,49
2024-03-29,1,49
2024-03-30,1,45
2024-03-31,1,48
2024-04-01,0,54
2024-04-02,3,53
2024-04-03,3,48
2024-04-04,3,49
2024-04-05,5,48
2024-04-06,3,44
2024-04-07,5,54
2024-04-08,3,45
2024-04-09,0,48
2024-04-10,2,50
2024-04-11,3,55
2024-04-12,4,49
2024-04-13,2,54
2024-04-14,3,52
2024-04-15,5,58
2024-04-16,2,45
2024-04-17,2,50
2024-04-18,2,63
2024-04-19,3,57
2024-04-20,2,50
2024-04-21,2,65
2024-04-22,4,54
2024-04-23,4,68
2024-04-24,1,56
2024-04-25,0,46
2024-04-26,4,51
2024-04-27,6,52
2024-04-28,3,55
2024-04-29,4,59
2024-04-30,5,62
2024-05-01,3,68
2024-05-02,3,67
2024-05-03,2,55
2024-05-04,0,57
2024-05-05,1,66
2024-05-06,3,56
2024-05-07,2,66
2024-05-08,2,59
2024-05-09,2,70
2024-05-10,3,69
2024-05-11,1,67
2024-05-12,1,68
2024-05-13,4,62
2024-05-14,6,57
2024-05-15,3,76
2024-05-16,4,67
2024-05-17,4,57
2024-05-18,3,60
2024-05-19,2,62
2024-05-20,3,74
2024-05-21,0,66
2024-05-22,1,71
2024-05-23,4,70
2024-05-24,1,71
2024-05-25,1,64
2024-05-26,3,64
2024-05-27,1,63
2024-05-28,2,64
2024-05-29,3,59
2024-05-30,2,72
2024-05-31,4,59
2024-06-01,2,65
2024-06-02,2,58
2024-06-03,0,71
2024-06-04,1,72
2024-06-05,0,59
2024-06-06,1,75
2024-06-07,2,70
2024-06-08,3,66
2024-06-09,1,16
